EW2360 Weather Reports


time (UTC)temp
F
wind
direction
speed
knots
gust
knots
rain 1hr
in
rain 24hr
in
rain mn
in
humidity
%
barometer
mb
20260503053343 70 231 0.0 0.0 0.00 0.70 0.00 100 1012.0
20260503052335 70 231 0.0 0.0 0.00 0.70 0.00 100 1012.4
20260503051352 71 208 0.0 0.0 0.00 0.70 0.00 100 1012.6
20260503050327 71 208 0.0 0.0 0.00 0.70 0.00 100 1012.7
20260503045342 71 208 0.0 0.0 0.00 0.70 0.00 100 1012.6
20260503044335 71 208 0.0 0.0 0.00 0.70 0.00 100 1012.7
20260503043347 71 208 0.0 0.0 0.00 0.70 0.00 100 1012.7
20260503042332 71 208 0.0 0.0 0.00 0.70 0.00 100 1012.8
20260503041344 70 208 0.0 0.0 0.00 0.70 0.00 100 1012.6
20260503040328 70 208 0.0 0.9 0.00 0.70 0.00 100 1012.4
20260503035339 70 208 0.0 0.0 0.00 0.70 0.70 100 1012.3
20260503034347 70 208 0.0 0.0 0.00 0.70 0.70 100 1012.1
20260503033341 70 208 0.0 0.0 0.00 0.70 0.70 100 1011.9
20260503032357 70 208 0.0 0.0 0.01 0.70 0.70 100 1011.9
20260503031352 70 224 0.0 0.0 0.01 0.70 0.70 100 1011.6
20260503030326 70 224 0.0 0.0 0.01 0.70 0.70 100 1011.1
20260503025400 70 222 0.0 0.0 0.01 0.70 0.70 100 1011.1
20260503024328 70 195 0.0 0.9 0.01 0.70 0.70 100 1011.3
20260503023344 70 207 0.0 0.0 0.01 0.70 0.70 100 1011.0
20260503022328 70 207 0.0 0.0 0.00 0.69 0.69 100 1011.6
20260503021402 70 207 0.0 0.9 0.00 0.69 0.69 100 1011.6
20260503020328 70 195 0.0 1.7 0.00 0.69 0.69 100 1011.4
20260503015343 70 248 0.9 2.6 0.00 0.69 0.69 100 1011.4
20260503014358 70 169 0.9 2.6 0.02 0.69 0.69 100 1010.9
20260503013352 70 215 0.0 0.9 0.02 0.69 0.69 100 1010.6
20260503012338 70 139 0.0 1.7 0.02 0.69 0.69 100 1010.0
20260503011325 70 162 0.9 3.5 0.02 0.69 0.69 100 1010.2
20260503010337 70 134 0.9 6.1 0.02 0.69 0.69 100 1010.2
20260503005324 70 167 0.9 4.3 0.02 0.69 0.69 100 1010.4
20260503004341 70 119 2.6 5.2 0.00 0.67 0.67 100 1009.9
20260503003328 70 160 1.7 3.5 0.00 0.67 0.67 100 1010.0
20260503002343 70 123 0.9 3.5 0.00 0.67 0.67 100 1009.5
20260503001331 71 151 1.7 4.3 0.00 0.67 0.67 100 1009.7
20260503000329 71 117 0.9 2.6 0.00 0.67 0.67 100 1009.7
20260502235405 71 193 0.0 2.6 0.00 0.67 0.67 100 1009.9
20260502234341 71 207 0.9 5.2 0.00 0.67 0.67 100 1010.2
20260502233334 71 187 1.7 4.3 0.00 0.67 0.67 100 1010.3
20260502232328 71 127 0.9 1.7 0.00 0.67 0.67 100 1010.1
20260502231344 71 224 0.0 0.9 0.00 0.67 0.67 100 1009.9
20260502230332 71 224 0.9 2.6 0.14 0.67 0.67 100 1010.6
20260502225347 71 245 0.0 1.7 0.50 0.67 0.67 100 1010.0
20260502224334 71 233 0.0 1.7 0.65 0.67 0.67 100 1010.2
20260502223328 71 333 0.9 2.6 0.66 0.67 0.67 100 1009.9
20260502222344 70 86 0.0 0.0 0.66 0.67 0.67 99 1009.8
20260502221332 70 83 0.0 4.3 0.65 0.66 0.66 99 1009.7
20260502220347 71 330 6.1 12.2 0.54 0.55 0.55 97 1010.1
20260502215423 73 309 7.8 15.6 0.10 0.11 0.11 95 1011.0
20260502214347 77 293 10.4 19.1 0.01 0.02 0.02 84 1010.6
20260502213333 84 205 4.3 7.0 0.00 0.01 0.01 77 1009.2
20260502212329 84 245 2.6 5.2 0.00 0.01 0.01 75 1009.2
20260502211324 84 212 1.7 6.1 0.00 0.01 0.01 73 1008.9
20260502210359 85 249 3.5 7.0 0.00 0.01 0.01 72 1008.8
20260502205334 85 247 1.7 5.2 0.00 0.01 0.01 72 1008.6
20260502204406 85 197 2.6 7.8 0.00 0.01 0.01 71 1008.4
20260502203330 86 238 4.3 7.8 0.00 0.01 0.01 69 1008.7
20260502202324 87 255 2.6 11.3 0.00 0.01 0.01 69 1008.7
20260502201338 87 230 5.2 11.3 0.00 0.01 0.01 67 1008.6
20260502200335 87 245 4.3 9.6 0.00 0.01 0.01 66 1008.5
20260502195349 88 241 5.2 11.3 0.00 0.01 0.01 66 1008.6
20260502194343 88 255 7.0 11.3 0.00 0.01 0.01 66 1008.6
20260502193339 89 197 4.3 10.4 0.00 0.01 0.01 66 1008.5
20260502192334 89 159 4.3 9.6 0.00 0.01 0.01 65 1008.6
20260502191329 89 211 6.1 14.8 0.00 0.01 0.01 67 1008.7
20260502190341 89 267 7.8 14.8 0.00 0.01 0.01 67 1008.8
20260502185335 89 294 7.0 15.6 0.00 0.01 0.01 65 1009.0
20260502184331 89 204 7.8 15.6 0.00 0.01 0.01 67 1008.9
20260502183347 90 212 3.5 13.0 0.00 0.01 0.01 67 1009.1
20260502182341 90 196 7.0 13.9 0.00 0.01 0.01 67 1009.3
20260502181329 90 250 9.6 17.4 0.00 0.01 0.01 64 1009.4
20260502180325 89 249 7.8 15.6 0.00 0.01 0.01 68 1009.4
20260502170352 89 243 5.2 15.6 0.00 0.01 0.01 68 1009.6
20260502164340 89 231 8.7 15.6 0.00 0.01 0.01 68 1009.8
20260502163335 89 225 6.1 15.6 0.00 0.01 0.01 70 1009.9
20260502162351 88 261 6.1 14.8 0.00 0.01 0.01 72 1009.9
20260502161325 88 238 9.6 16.5 0.00 0.01 0.01 72 1010.0
20260502160400 88 230 9.6 14.8 0.00 0.01 0.01 72 1009.8
20260502152341 86 193 7.8 17.4 0.00 0.01 0.01 76 1010.0
20260502151337 86 184 9.6 20.0 0.00 0.01 0.01 75 1009.9
20260502150332 85 214 7.8 16.5 0.00 0.01 0.01 78 1009.8
20260502130326 77 212 2.6 8.7 0.00 0.01 0.00 93 1008.9
20260502123350 72 205 3.5 6.1 0.00 0.01 0.00 100 1009.0
20260502122324 71 162 1.7 5.2 0.00 0.01 0.00 100 1008.9
20260502121340 69 153 2.6 5.2 0.00 0.01 0.00 100 1008.9
20260502120335 68 131 2.6 5.2 0.00 0.01 0.00 100 1008.9
20260502115329 67 141 1.7 5.2 0.00 0.01 0.00 100 1008.8
20260502114326 66 136 1.7 5.2 0.00 0.01 0.00 100 1008.8
20260502113402 66 105 2.6 4.3 0.00 0.01 0.00 100 1008.8
20260502112337 65 121 1.7 2.6 0.00 0.01 0.00 100 1008.8
20260502111333 65 133 0.9 2.6 0.00 0.01 0.00 100 1008.9
20260502110326 65 110 1.7 3.5 0.00 0.01 0.00 100 1009.0
20260502105342 65 151 0.9 2.6 0.00 0.01 0.00 100 1008.9
20260502104357 65 127 0.0 1.7 0.00 0.01 0.00 100 1008.8
20260502103333 65 105 0.0 2.6 0.00 0.01 0.00 100 1008.9
20260502102330 65 124 0.0 0.9 0.00 0.01 0.00 100 1009.0
20260502101326 65 150 0.0 0.9 0.00 0.01 0.00 100 1009.0
20260502100342 65 125 0.0 2.6 0.00 0.01 0.00 100 1009.1
20260502091341 65 127 0.9 1.7 0.00 0.01 0.00 100 1009.4
20260502090336 65 138 0.0 0.9 0.00 0.01 0.00 100 1009.4
20260502071342 64 235 0.0 0.0 0.00 0.01 0.00 100 1009.3
20260502070337 64 235 0.0 0.0 0.00 0.01 0.00 100 1009.3
20260502065352 64 235 0.0 0.0 0.00 0.01 0.00 100 1009.2
20260502064338 64 235 0.0 0.0 0.00 0.01 0.00 100 1009.2
20260502063352 64 235 0.0 0.0 0.00 0.01 0.00 100 1009.5
20260502062344 64 235 0.0 0.0 0.00 0.01 0.00 100 1009.6
20260502061330 64 235 0.0 0.0 0.00 0.01 0.00 100 1009.6
20260502060340 64 235 0.0 0.0 0.00 0.01 0.00 100 1009.7
20260502055353 64 235 0.0 0.0 0.00 0.01 0.00 100 1009.7
20260502054338 65 235 0.0 0.0 0.00 0.01 0.00 100 1009.7